STARLINK-32643, 62233

Orbit data source: Space-Track

STARLINK-32643, 62233 is a payload satellite owned by SpaceX/Seattle (US) in LEO that was launched on Thu, 05 Dec 2024 UTC via an FALCON 9 launch vehicle from the Air Force Western Test Range (AFWTR). Payload-class satellites include a variety of spacecraft equipped with specific instruments for various scientific and technological missions. These include communications satellites like Starlink; space stations such as the ISS; scientific satellites like the Hubble; Earth observation satellites from companies like Planet Labs, Umbra, and HawkEye 360; GPS; miniature CubeSats for education and research; and military/defense satellites.

Loading next visibility...
Identifier
62233, 2024-231R
Orbit
LEO
Last TLE update
16 hours ago
Origin
Manufacturer
SpaceX/Seattle
Mission
Operational Commercial Communications
Bus & Motor
STARLINK V2M, Unknown motor
Mass
730 kg wet, ~700 kg dry
Launch date (UTC)
2024-12-05 (7 months ago)
Launch vehicle
FALCON 9
Launch site
Air Force Western Test Range (AFWTR)
Object type
Payload
Rocket body
Debris
Shape & HBR
Box + 2 Pan, 29 m
Radar Cross Section
33.884 m², Large (>1 m²)

Expand to show TLE details & history

TLE from 16 hours ago
0 STARLINK-32643
1 62233U 24231R   25183.58049545  .00035220  00000-0  88583-3 0  9994
2 62233  53.1592 295.8207 0001198  98.1773 261.9368 15.39640297 33546
Epoch: 2025-07-02T13:55Z
TLE epoch observation values (Epoch: 2025-07-02T13:55:54.806Z)
Latitude
-0.00002°
Longitude
165.98277°
Altitude
448.19 km
Speed
7.644 km/s
True Right ascension
19h 43m 16s
True Declination
0° 00' 00"
Sunlit
Object was in full shadow at epoch
Visualization orbit readout
Latitude
8.46229°
Longitude
169.2782°
Altitude
447.23 km
Speed
7.646 km/s
Apparent Right ascension
23h 01m 51s
Apparent Declination
-35° 34' 26"
Sunlit
Object is in full shadow
Visualization observer readout
Local Sidereal Time
17:18:55
Azimuth
120.878° SE
Elevation
-19.08°
Doppler factor
1
Orbital elements
Apogee altitude
448.247 km
Perigee altitude
446.612 km
Semi-major axis
6,825.567 km
Eccentricity
0.00012
Inclination
53.1592°
RAAN
295.8207°
Arg. of periapsis
98.1773°
True anomaly
Unknown
Mean anomaly
261.9368°
Eccentric anomaly
Unknown
Mean motion
3.84889 °/min
Orbital period
93.53 mins
BSTAR
0.00088583
Loading maneuver chart data...
Loading SW <> Apogee altitude chart data...
Loading historical data...
Loading historical data...
Loading historical data...
Loading historical data...
Loading historical data...
Loading historical data...
Loading historical data...

STARLINK-32643 Visibility forecast

Observer location: undefined°, undefined°

Span
Click to sort rows by Start time (UTC) header in descending order
Start Az.
Max El. time (UTC)
Max El. Az.
Max El.
End time (UTC)
End Az.
5 mins2025-07-03 10:23:23.371Z240.124° WSW2025-07-03 10:25:23.371Z348.103° N43.439°2025-07-03 10:28:23.371Z46.202° ENE
5 mins2025-07-03 16:55:23.371Z311.368° NW2025-07-03 16:57:23.371Z320.261° NNW43.1°2025-07-03 17:00:23.371Z129.147° SE
|